TimeCST,TemperatureF,Dew PointF,Humidity,Sea Level PressureIn,VisibilityMPH,Wind Direction,Wind SpeedMPH,Gust SpeedMPH,PrecipitationIn,Events,Conditions,WindDirDegrees,DateUTC
12:15 AM,48.9,32.0,52,30.20,10.0,SSE,4.6,-,N/A,,Clear,150,2013-03-08 06:15:00
12:35 AM,48.2,32.2,54,30.20,10.0,Calm,Calm,-,N/A,,Clear,0,2013-03-08 06:35:00
12:55 AM,47.3,32.7,57,30.19,10.0,SE,4.6,-,N/A,,Clear,130,2013-03-08 06:55:00
1:15 AM,46.8,33.3,59,30.20,10.0,Calm,Calm,-,N/A,,Clear,0,2013-03-08 07:15:00
1:35 AM,46.2,33.4,61,30.20,10.0,Calm,Calm,-,N/A,,Clear,0,2013-03-08 07:35:00
1:55 AM,44.8,33.8,65,30.20,10.0,Calm,Calm,-,N/A,,Clear,0,2013-03-08 07:55:00
2:15 AM,44.6,33.8,66,30.20,10.0,Calm,Calm,-,N/A,,Clear,0,2013-03-08 08:15:00
2:35 AM,43.9,34.3,69,30.19,10.0,SE,3.5,-,N/A,,Clear,130,2013-03-08 08:35:00
2:55 AM,43.7,35.1,72,30.18,10.0,SE,3.5,-,N/A,,Clear,130,2013-03-08 08:55:00
3:15 AM,43.7,35.2,72,30.18,10.0,ESE,3.5,-,N/A,,Clear,110,2013-03-08 09:15:00
3:35 AM,41.2,34.0,76,30.18,10.0,Calm,Calm,-,N/A,,Clear,0,2013-03-08 09:35:00
3:55 AM,40.6,34.7,79,30.19,10.0,Calm,Calm,-,N/A,,Clear,0,2013-03-08 09:55:00
4:15 AM,40.6,34.9,80,30.18,10.0,Calm,Calm,-,N/A,,Clear,0,2013-03-08 10:15:00
4:35 AM,41.2,35.6,81,30.19,10.0,Calm,Calm,-,N/A,,Clear,0,2013-03-08 10:35:00
4:55 AM,40.6,35.4,82,30.20,10.0,Calm,Calm,-,N/A,,Clear,0,2013-03-08 10:55:00
5:15 AM,41.2,36.5,83,30.21,10.0,Calm,Calm,-,N/A,,Clear,0,2013-03-08 11:15:00
5:35 AM,41.7,36.0,80,30.21,10.0,Calm,Calm,-,N/A,,Clear,0,2013-03-08 11:35:00
5:55 AM,41.7,37.2,84,30.21,10.0,Calm,Calm,-,N/A,,Clear,0,2013-03-08 11:55:00
6:15 AM,41.9,37.0,83,30.21,10.0,Calm,Calm,-,N/A,,Clear,0,2013-03-08 12:15:00
6:35 AM,42.6,36.7,79,30.22,10.0,Calm,Calm,-,N/A,,Clear,0,2013-03-08 12:35:00
6:55 AM,42.8,37.4,81,30.22,10.0,Calm,Calm,-,N/A,,Clear,0,2013-03-08 12:55:00
7:15 AM,46.4,38.5,74,30.23,10.0,Calm,Calm,-,N/A,,Scattered Clouds,0,2013-03-08 13:15:00
7:35 AM,47.7,38.7,71,30.23,10.0,East,3.5,-,N/A,,Scattered Clouds,90,2013-03-08 13:35:00
7:55 AM,49.3,39.2,68,30.23,10.0,ESE,3.5,-,N/A,,Scattered Clouds,110,2013-03-08 13:55:00
8:15 AM,50.5,38.8,64,30.24,10.0,East,5.8,-,N/A,,Mostly Cloudy,100,2013-03-08 14:15:00
8:35 AM,51.8,39.2,62,30.24,10.0,East,5.8,-,N/A,,Overcast,100,2013-03-08 14:35:00
8:55 AM,53.2,39.2,59,30.24,10.0,ESE,4.6,-,N/A,,Overcast,110,2013-03-08 14:55:00
9:15 AM,55.2,39.2,55,30.25,10.0,ESE,6.9,-,N/A,,Overcast,120,2013-03-08 15:15:00
9:35 AM,55.9,37.9,51,30.26,10.0,ESE,5.8,-,N/A,,Overcast,110,2013-03-08 15:35:00
9:55 AM,58.1,37.6,46,30.27,10.0,SE,9.2,-,N/A,,Mostly Cloudy,130,2013-03-08 15:55:00
10:15 AM,58.1,37.9,47,30.27,10.0,ESE,8.1,-,N/A,,Mostly Cloudy,110,2013-03-08 16:15:00
10:35 AM,59.9,39.7,47,30.26,10.0,ESE,5.8,-,N/A,,Overcast,120,2013-03-08 16:35:00
10:55 AM,60.4,41.5,50,30.27,10.0,ESE,4.6,-,N/A,,Overcast,110,2013-03-08 16:55:00
11:15 AM,61.3,41.4,48,30.26,10.0,East,4.6,-,N/A,,Mostly Cloudy,90,2013-03-08 17:15:00
11:35 AM,62.8,42.1,47,30.24,10.0,SE,9.2,-,N/A,,Scattered Clouds,130,2013-03-08 17:35:00
11:55 AM,64.9,43.0,45,30.24,10.0,ESE,8.1,-,N/A,,Clear,120,2013-03-08 17:55:00
12:15 PM,65.5,44.6,47,30.21,10.0,ESE,10.4,16.1,N/A,,Scattered Clouds,110,2013-03-08 18:15:00
12:35 PM,64.9,45.5,49,30.20,10.0,SE,9.2,-,N/A,,Scattered Clouds,140,2013-03-08 18:35:00
12:55 PM,65.7,45.7,48,30.18,10.0,East,6.9,-,N/A,,Clear,100,2013-03-08 18:55:00
1:15 PM,68.9,44.1,41,30.17,10.0,East,11.5,17.3,N/A,,Clear,100,2013-03-08 19:15:00
1:35 PM,69.6,44.1,40,30.14,10.0,East,10.4,16.1,N/A,,Clear,100,2013-03-08 19:35:00
1:55 PM,71.1,43.3,37,30.14,10.0,SE,9.2,-,N/A,,Clear,130,2013-03-08 19:55:00
2:15 PM,70.9,42.3,36,30.13,10.0,SSE,12.7,18.4,N/A,,Clear,150,2013-03-08 20:15:00
2:35 PM,71.4,41.2,33,30.12,10.0,SE,10.4,-,N/A,,Clear,130,2013-03-08 20:35:00
2:55 PM,71.6,40.8,33,30.12,10.0,SSE,10.4,17.3,N/A,,Clear,160,2013-03-08 20:55:00
3:15 PM,72.5,40.5,31,30.11,10.0,ESE,12.7,-,N/A,,Clear,120,2013-03-08 21:15:00
3:35 PM,70.7,40.8,34,30.11,10.0,SE,6.9,-,N/A,,Scattered Clouds,140,2013-03-08 21:35:00
3:55 PM,70.7,40.6,34,30.10,10.0,SSE,9.2,-,N/A,,Mostly Cloudy,150,2013-03-08 21:55:00
4:15 PM,70.2,41.9,36,30.10,10.0,SE,9.2,-,N/A,,Overcast,140,2013-03-08 22:15:00
4:35 PM,70.0,43.2,38,30.10,10.0,ESE,9.2,-,N/A,,Overcast,120,2013-03-08 22:35:00
4:55 PM,69.4,41.2,36,30.11,10.0,SE,10.4,-,N/A,,Overcast,140,2013-03-08 22:55:00
5:15 PM,68.7,41.4,37,30.12,10.0,SSE,6.9,-,N/A,,Overcast,150,2013-03-08 23:15:00
5:35 PM,68.2,43.2,40,30.11,10.0,SE,11.5,-,N/A,,Overcast,140,2013-03-08 23:35:00
5:55 PM,67.1,44.1,43,30.11,10.0,SE,5.8,-,N/A,,Scattered Clouds,140,2013-03-08 23:55:00
6:15 PM,66.2,41.5,41,30.09,10.0,East,8.1,-,N/A,,Clear,100,2013-03-09 00:15:00
6:35 PM,65.3,40.1,40,30.10,10.0,ESE,6.9,-,N/A,,Clear,110,2013-03-09 00:35:00
6:55 PM,64.8,39.6,40,30.11,10.0,ESE,5.8,-,N/A,,Scattered Clouds,110,2013-03-09 00:55:00
7:15 PM,64.0,38.3,39,30.11,10.0,ESE,6.9,-,N/A,,Scattered Clouds,110,2013-03-09 01:15:00
7:35 PM,63.9,39.2,40,30.09,10.0,ESE,8.1,-,N/A,,Scattered Clouds,110,2013-03-09 01:35:00
7:55 PM,63.9,38.3,39,30.07,10.0,ESE,8.1,-,N/A,,Clear,110,2013-03-09 01:55:00
8:15 PM,63.7,38.5,39,30.08,10.0,ESE,8.1,-,N/A,,Clear,120,2013-03-09 02:15:00
8:35 PM,63.5,39.0,41,30.09,10.0,SE,6.9,-,N/A,,Scattered Clouds,130,2013-03-09 02:35:00
8:55 PM,63.5,39.4,41,30.09,10.0,SE,5.8,-,N/A,,Scattered Clouds,130,2013-03-09 02:55:00
9:15 PM,63.1,40.3,43,30.09,10.0,SE,4.6,-,N/A,,Clear,130,2013-03-09 03:15:00
9:35 PM,61.0,41.9,49,30.09,10.0,SSE,3.5,-,N/A,,Clear,150,2013-03-09 03:35:00
9:55 PM,61.0,42.8,51,30.10,10.0,Calm,Calm,-,N/A,,Clear,0,2013-03-09 03:55:00
10:15 PM,61.2,44.4,54,30.10,7.0,SSE,3.5,-,N/A,,Clear,150,2013-03-09 04:15:00
10:35 PM,61.2,46.4,58,30.10,10.0,SSE,4.6,-,N/A,,Clear,160,2013-03-09 04:35:00
10:55 PM,61.7,47.3,59,30.10,10.0,SSE,3.5,-,N/A,,Clear,160,2013-03-09 04:55:00
11:15 PM,61.5,47.8,61,30.10,10.0,SSE,4.6,-,N/A,,Clear,160,2013-03-09 05:15:00
11:35 PM,61.0,48.4,63,30.09,10.0,South,6.9,-,N/A,,Clear,170,2013-03-09 05:35:00
11:55 PM,60.1,48.7,66,30.08,10.0,South,4.6,-,N/A,,Clear,170,2013-03-09 05:55:00